Tucson, AZ

7:20 PM MST on December 08, 2019 (GMT -0700)
Tucson International

Weather History for KTUS - May, 2019

Change the Weather History Date:

Friday, May 31, 2019

  Actual Average Record
Temperature  
Mean Temperature 79 °F 81 °F  
Max Temperature 96 °F 97 °F 107 °F (2002)
Min Temperature 61 °F 65 °F 44 °F (1918)
Degree Days  
Heating Degree Days 0 0  
Month to date heating degree days 1 3  
Since 1 July heating degree days 1409 1511  
Cooling Degree Days 14 16  
Month to date cooling degree days 192 348  
Year to date cooling degree days 372 502  
Growing Degree Days 28 (Base 50)    
Moisture  
Dew Point 27 °F    
Average Humidity 15    
Maximum Humidity 32    
Minimum Humidity 4    
Precipitation  
Precipitation 0.00 in 0.01 in 0.13 in (1914)
Month to date precipitation 1.22 0.23  
Year to date precipitation 5.03 3.07  
Sea Level Pressure  
Sea Level Pressure 29.77 in    
Wind  
Wind Speed 8 mph (South)    
Max Wind Speed 20 mph    
Max Gust Speed 27 mph    
Visibility 10 miles    
Events      
T = Trace of Precipitation, MM = Missing Value Source: NWS Daily Summary

Daily Weather History Graph

Daily Weather History Graph

Search for Another Location

Airport or City:

Astronomy

May. 31, 2019 Rise Set
Actual Time 5:18 AM MST 7:24 PM MST
Civil Twilight 4:50 AM MST 7:52 PM MST
Nautical Twilight 4:16 AM MST 8:26 PM MST
Astronomical Twilight 3:40 AM MST 9:02 PM MST
Moon 3:39 AM MST (5/31) 4:49 PM MST (5/31)
Length of Visible Light 15h 01m
Length of Day
14h 06m
Waning Crescent, 8% of the Moon is Illuminated
May 31
Waning Crescent
Jun 3
New
Jun 9
First Quarter
Jun 17
Full
Jun 25
Last Quarter

Hourly Weather History & Observations

Time (MST) Temp. Dew Point Humidity Pressure Visibility Wind Dir Wind Speed Gust Speed Precip Events Conditions
12:53 AM 71.1 °F 32.0 °F 24% 29.82 in 10.0 mi SE 6.9 mph - N/A   Clear
1:53 AM 69.1 °F 34.0 °F 27% 29.82 in 10.0 mi SSE 6.9 mph - N/A   Clear
2:53 AM 64.9 °F 33.1 °F 31% 29.81 in 10.0 mi SE 8.1 mph - N/A   Clear
3:53 AM 64.0 °F 30.0 °F 28% 29.82 in 10.0 mi Calm Calm - N/A   Clear
4:53 AM 62.1 °F 30.9 °F 31% 29.82 in 10.0 mi SE 6.9 mph - N/A   Clear
5:53 AM 62.1 °F 32.0 °F 32% 29.83 in 10.0 mi SE 9.2 mph - N/A   Clear
6:53 AM 66.0 °F 30.0 °F 26% 29.84 in 10.0 mi SE 10.4 mph - N/A   Clear
7:53 AM 73.0 °F 32.0 °F 22% 29.84 in 10.0 mi SE 9.2 mph - N/A   Clear
8:53 AM 78.1 °F 30.9 °F 18% 29.83 in 10.0 mi SSE 3.5 mph - N/A   Clear
9:53 AM 84.0 °F 28.9 °F 14% 29.81 in 10.0 mi East 3.5 mph - N/A   Clear
10:53 AM 88.0 °F 26.1 °F 11% 29.80 in 10.0 mi SSW 10.4 mph - N/A   Clear
11:53 AM 90.0 °F 27.0 °F 10% 29.78 in 10.0 mi SSE 9.2 mph 20.7 mph N/A   Clear
12:53 PM 93.0 °F 26.1 °F 9% 29.75 in 10.0 mi ESE 10.4 mph 16.1 mph N/A   Clear
1:53 PM 95.0 °F 24.1 °F 8% 29.72 in 10.0 mi SW 11.5 mph 23.0 mph N/A   Clear
2:53 PM 93.9 °F 25.0 °F 8% 29.70 in 10.0 mi SW 12.7 mph 25.3 mph N/A   Clear
3:21 PM 95.0 °F 24.1 °F 8% 29.83 in 10.0 mi West 12.7 mph 20.7 mph N/A   Clear
3:53 PM 95.0 °F 23.0 °F 8% 29.69 in 10.0 mi SW 12.7 mph 24.2 mph N/A   Clear
4:53 PM 93.9 °F 21.0 °F 7% 29.69 in 10.0 mi SW 10.4 mph 20.7 mph N/A   Clear
5:53 PM 91.9 °F 24.1 °F 9% 29.69 in 10.0 mi SW 15.0 mph - N/A   Clear
6:53 PM 90.0 °F 23.0 °F 9% 29.69 in 10.0 mi SW 11.5 mph 23.0 mph N/A   Clear
7:53 PM 86.0 °F 19.9 °F 9% 29.71 in 10.0 mi SW 9.2 mph - N/A   Clear
8:53 PM 82.0 °F 21.0 °F 10% 29.73 in 10.0 mi SW 4.6 mph - N/A   Clear
9:53 PM 75.9 °F 21.9 °F 13% 29.76 in 10.0 mi Calm Calm - N/A   Clear
10:53 PM 78.1 °F 27.0 °F 15% 29.76 in 10.0 mi Calm Calm - N/A   Clear
11:53 PM 73.9 °F 27.0 °F 18% 29.76 in 10.0 mi Calm Calm - N/A   Clear